Location: Newark
(49.8969°N, 3.3422°E)
Time: 19:48:28
(UTC+00:00)

deb Explorer IX - Pass Details

Date: 23 January 2020
Orbit: 549 x 1099 km, 38.8° (Epoch: 25 February)

Event Time Altitude Azimuth Distance (km) Brightness Sun altitude
Rises 00:02:10 0° 243° (WSW) 3,892 - -59.7°
Reaches altitude 10° 00:05:13 10° 234° (SW) 2,947 - -59.7°
Maximum altitude 00:11:32 33° 174° (S) 1,740 - -59.6°
Drops below altitude 10° 00:17:36 10° 114° (ESE) 2,826 - -59.5°
Sets 00:20:27 0° 105° (ESE) 3,713 - -59.4°
